• In Belarus
  • List of Countries
  • For 7 days
  • Water Temperature
  • Weather Map
  • Weather Widgets
  • user-avatar
    Login

    Hourly Weather Igali

    Today, 30 May, Saturday

    Time Temperature Precipitation Wind Pressure Humidity
    00:00 +22°C° 0.1 mm 3 mps 707 mmHg 66%
    01:00 +21°C° 0 mm 3 mps 707 mmHg 68%
    02:00 +21°C° 0 mm 3 mps 707 mmHg 71%
    03:00 +20°C° 0 mm 3 mps 707 mmHg 75%
    04:00 +20°C° 0 mm 3 mps 708 mmHg 77%
    05:00 +21°C° 0 mm 3 mps 709 mmHg 80%
    06:00 +21°C° 0 mm 3 mps 709 mmHg 83%
    07:00 +21°C° 0 mm 3 mps 710 mmHg 81%
    08:00 +21°C° 0 mm 3 mps 710 mmHg 79%
    09:00 +22°C° 0 mm 3 mps 710 mmHg 77%
    10:00 +22°C° 0.1 mm 3 mps 711 mmHg 74%
    11:00 +24°C° 0.1 mm 3 mps 711 mmHg 72%
    12:00 +24°C° 0.1 mm 3 mps 711 mmHg 69%
    13:00 +22°C° 0.1 mm 3 mps 711 mmHg 71%
    14:00 +22°C° 0.1 mm 3 mps 712 mmHg 73%
    15:00 +22°C° 0.1 mm 3 mps 712 mmHg 75%
    16:00 +21°C° 0.1 mm 2 mps 712 mmHg 77%
    17:00 +20°C° 0.1 mm 2 mps 712 mmHg 80%
    18:00 +20°C° 0.1 mm 2 mps 712 mmHg 82%
    19:00 +19°C° 0 mm 2 mps 712 mmHg 84%
    20:00 +20°C° 0 mm 1 mps 712 mmHg 86%
    21:00 +19°C° 0 mm 1 mps 713 mmHg 88%
    22:00 +19°C° 0 mm 1 mps 713 mmHg 87%
    23:00 +19°C° 0 mm 1 mps 712 mmHg 86%

    Tomorrow, 31 May, Sunday

    Time Temperature Precipitation Wind Pressure Humidity
    00:00 +18°C° 0 mm 1 mps 712 mmHg 85%
    01:00 +18°C° 0 mm 1 mps 713 mmHg 85%
    02:00 +18°C° 0 mm 1 mps 713 mmHg 85%
    03:00 +18°C° 0 mm 1 mps 713 mmHg 85%
    04:00 +18°C° 0 mm 1 mps 713 mmHg 85%
    05:00 +18°C° 0 mm 1 mps 713 mmHg 85%
    06:00 +18°C° 0 mm 1 mps 713 mmHg 85%
    07:00 +18°C° 0 mm 2 mps 713 mmHg 83%
    08:00 +18°C° 0 mm 2 mps 714 mmHg 81%
    09:00 +19°C° 0 mm 2 mps 714 mmHg 79%
    10:00 +19°C° 0 mm 2 mps 714 mmHg 78%
    11:00 +20°C° 0 mm 2 mps 713 mmHg 77%
    12:00 +20°C° 0 mm 2 mps 713 mmHg 76%
    13:00 +20°C° 0 mm 2 mps 713 mmHg 76%
    14:00 +20°C° 0 mm 2 mps 713 mmHg 76%
    15:00 +21°C° 0 mm 3 mps 713 mmHg 76%
    16:00 +20°C° 0 mm 2 mps 713 mmHg 78%
    17:00 +20°C° 0 mm 2 mps 713 mmHg 81%
    18:00 +19°C° 0 mm 2 mps 712 mmHg 83%
    19:00 +19°C° 0 mm 1 mps 712 mmHg 86%
    20:00 +18°C° 0 mm 1 mps 712 mmHg 89%
    21:00 +15°C° 0 mm 0 mps 712 mmHg 93%
    22:00 +16°C° 0 mm 1 mps 712 mmHg 91%
    23:00 +16°C° 0 mm 1 mps 712 mmHg 90%

    Day after tomorrow, 1 June, Monday

    Time Temperature Precipitation Wind Pressure Humidity
    00:00 +16°C° 0 mm 1 mps 711 mmHg 88%
    01:00 +16°C° 0 mm 1 mps 711 mmHg 87%
    02:00 +16°C° 0 mm 1 mps 711 mmHg 86%
    03:00 +15°C° 0 mm 1 mps 711 mmHg 84%
    04:00 +16°C° 0 mm 1 mps 711 mmHg 81%
    05:00 +18°C° 0 mm 1 mps 711 mmHg 78%
    06:00 +19°C° 0 mm 1 mps 711 mmHg 75%
    07:00 +21°C° 0 mm 1 mps 711 mmHg 68%
    08:00 +23°C° 0 mm 2 mps 711 mmHg 62%
    09:00 +25°C° 0 mm 2 mps 711 mmHg 56%
    10:00 +26°C° 0 mm 2 mps 711 mmHg 53%
    11:00 +27°C° 0 mm 2 mps 711 mmHg 51%
    12:00 +28°C° 0 mm 2 mps 711 mmHg 48%
    13:00 +28°C° 0 mm 2 mps 710 mmHg 48%
    14:00 +28°C° 0 mm 2 mps 710 mmHg 48%
    15:00 +28°C° 0 mm 2 mps 710 mmHg 48%
    16:00 +27°C° 0.1 mm 2 mps 709 mmHg 54%
    17:00 +26°C° 0.1 mm 2 mps 709 mmHg 59%
    18:00 +25°C° 0.1 mm 1 mps 709 mmHg 65%
    19:00 +24°C° 0 mm 1 mps 709 mmHg 68%
    20:00 +22°C° 0 mm 1 mps 709 mmHg 72%
    21:00 +20°C° 0 mm 1 mps 709 mmHg 76%
    22:00 +20°C° 0 mm 1 mps 708 mmHg 74%
    23:00 +20°C° 0 mm 1 mps 708 mmHg 72%

    2 June, Tuesday

    Time Temperature Precipitation Wind Pressure Humidity
    00:00 +19°C° 0 mm 1 mps 708 mmHg 69%
    01:00 +18°C° 0 mm 2 mps 708 mmHg 67%
    02:00 +18°C° 0 mm 2 mps 707 mmHg 64%
    03:00 +18°C° 0 mm 2 mps 707 mmHg 61%
    04:00 +19°C° 0 mm 2 mps 707 mmHg 62%
    05:00 +20°C° 0 mm 2 mps 707 mmHg 62%
    06:00 +21°C° 0 mm 2 mps 707 mmHg 63%
    07:00 +24°C° 0 mm 2 mps 708 mmHg 56%
    08:00 +27°C° 0 mm 1 mps 708 mmHg 49%
    09:00 +29°C° 0 mm 1 mps 708 mmHg 42%
    10:00 +30°C° 0 mm 1 mps 708 mmHg 40%
    11:00 +31°C° 0 mm 2 mps 708 mmHg 38%
    12:00 +31°C° 0 mm 3 mps 708 mmHg 36%
    13:00 +31°C° 0 mm 3 mps 708 mmHg 36%
    14:00 +31°C° 0 mm 3 mps 707 mmHg 37%
    15:00 +31°C° 0 mm 3 mps 707 mmHg 37%
    16:00 +30°C° 0.1 mm 3 mps 707 mmHg 47%
    17:00 +28°C° 0.1 mm 2 mps 707 mmHg 57%
    18:00 +27°C° 0.1 mm 1 mps 707 mmHg 66%
    19:00 +25°C° 0 mm 1 mps 707 mmHg 71%
    20:00 +23°C° 0 mm 1 mps 707 mmHg 77%
    21:00 +21°C° 0 mm 1 mps 707 mmHg 82%
    22:00 +21°C° 0 mm 1 mps 707 mmHg 81%
    23:00 +21°C° 0 mm 1 mps 707 mmHg 80%

    3 June, Wednesday

    Time Temperature Precipitation Wind Pressure Humidity
    00:00 +20°C° 0 mm 1 mps 707 mmHg 79%
    01:00 +20°C° 0 mm 1 mps 707 mmHg 78%
    02:00 +20°C° 0 mm 1 mps 707 mmHg 77%
    03:00 +19°C° 0 mm 1 mps 706 mmHg 77%
    04:00 +20°C° 0 mm 1 mps 707 mmHg 73%
    05:00 +21°C° 0 mm 1 mps 707 mmHg 70%
    06:00 +22°C° 0 mm 1 mps 707 mmHg 67%
    07:00 +24°C° 0 mm 1 mps 707 mmHg 62%
    08:00 +26°C° 0 mm 1 mps 707 mmHg 57%
    09:00 +27°C° 0 mm 2 mps 707 mmHg 52%
    10:00 +28°C° 0 mm 2 mps 707 mmHg 51%
    11:00 +29°C° 0 mm 2 mps 707 mmHg 50%
    12:00 +30°C° 0 mm 2 mps 707 mmHg 50%
    13:00 +30°C° 0.6 mm 2 mps 707 mmHg 51%
    14:00 +30°C° 0.6 mm 2 mps 707 mmHg 52%
    15:00 +30°C° 0.6 mm 3 mps 707 mmHg 54%
    16:00 +29°C° 0.5 mm 2 mps 707 mmHg 58%
    17:00 +28°C° 0.5 mm 2 mps 707 mmHg 63%
    18:00 +27°C° 0.5 mm 1 mps 707 mmHg 68%
    19:00 +25°C° 0 mm 1 mps 707 mmHg 70%
    20:00 +24°C° 0 mm 1 mps 707 mmHg 72%
    21:00 +21°C° 0 mm 2 mps 707 mmHg 75%
    22:00 +21°C° 0 mm 2 mps 707 mmHg 71%
    23:00 +21°C° 0 mm 2 mps 707 mmHg 67%

    4 June, Thursday

    Time Temperature Precipitation Wind Pressure Humidity
    00:00 +20°C° 0 mm 2 mps 706 mmHg 63%
    01:00 +20°C° 0 mm 2 mps 706 mmHg 62%
    02:00 +20°C° 0 mm 2 mps 706 mmHg 61%
    03:00 +19°C° 0 mm 2 mps 706 mmHg 60%
    04:00 +20°C° 0 mm 2 mps 706 mmHg 61%
    05:00 +21°C° 0 mm 2 mps 707 mmHg 62%
    06:00 +23°C° 0 mm 1 mps 707 mmHg 63%
    07:00 +25°C° 0 mm 2 mps 707 mmHg 59%
    08:00 +26°C° 0 mm 2 mps 708 mmHg 55%
    09:00 +28°C° 0 mm 2 mps 708 mmHg 51%
    10:00 +28°C° 0.1 mm 3 mps 708 mmHg 54%
    11:00 +28°C° 0.1 mm 3 mps 709 mmHg 57%
    12:00 +28°C° 0.1 mm 3 mps 709 mmHg 59%
    13:00 +27°C° 0.4 mm 3 mps 709 mmHg 61%
    14:00 +27°C° 0.4 mm 3 mps 709 mmHg 62%
    15:00 +27°C° 0.4 mm 3 mps 709 mmHg 63%
    16:00 +26°C° 0.3 mm 3 mps 709 mmHg 68%
    17:00 +25°C° 0.3 mm 2 mps 709 mmHg 74%
    18:00 +24°C° 0.3 mm 2 mps 709 mmHg 79%
    19:00 +23°C° 0.1 mm 2 mps 710 mmHg 82%
    20:00 +22°C° 0.1 mm 1 mps 710 mmHg 84%
    21:00 +21°C° 0.1 mm 1 mps 711 mmHg 87%
    22:00 +21°C° 0 mm 1 mps 711 mmHg 86%
    23:00 +21°C° 0 mm 1 mps 711 mmHg 85%
    Show more